Location: State Camp
(41.2367°N, 77.7828°W)
Time: 16:52:04
(UTC-04:00)

Daily predictions for brighter satellites

Satellite Brightness Start Highest point End
(mag) Time Altitude Azimuth Time Altitude Azimuth Time Altitude Azimuth
Cosmos 2221 3.1 21:15:56 10° N 21:20:06 40° ENE 21:24:14 10° SSE
Milstar 3 Cent rocket 4.1 21:20:05 10° WSW 21:26:01 32° S 21:36:35 10° ESE
Okean 3 Rocket 3.9 21:22:35 10° SSE 21:26:53 48° E 21:31:12 10° NNE
ERS-1 Rocket 3.4 21:22:39 10° SE 21:27:26 46° ENE 21:32:15 10° N
ATLAS 5 CENTAUR R/B 1.7 21:25:12 10° SSW 21:29:46 66° ESE 21:34:44 10° NE
Cosmos 1939 Rocket 3.2 21:28:07 10° S 21:32:04 68° WSW 21:36:08 10° NNW
YAOGAN 6 2.6 21:28:44 10° SSE 21:32:21 77° ENE 21:36:03 10° N
H-2A R/B 3.6 21:30:08 10° ESE 21:34:17 24° ENE 21:38:29 10° NNE
Cosmos 1726 4.0 21:33:23 10° NNE 21:35:45 16° ENE 21:38:06 10° ESE
Cosmos 1340 Rocket 3.0 21:34:33 10° SSW 21:38:35 79° W 21:42:39 10° N
Cosmos 1184 Rocket 3.4 21:35:34 10° SSW 21:38:53 60° W 21:42:14 10° N
Cosmos 1818 3.6 21:34:45 10° NNW 21:40:13 75° ENE 21:45:22 11° SE
Cosmos 1741 Rocket 4.0 21:36:21 10° SSW 21:41:39 75° ESE 21:46:58 10° NNE
Cosmos 2237 Rocket 3.5 21:36:51 10° NW 21:42:00 38° WSW 21:47:08 10° S
Cosmos 1766 Rocket 4.3 21:38:36 10° SSE 21:42:27 33° E 21:46:21 10° NNE
NOSS 3-4 (A) 4.3 21:35:42 10° NW 21:42:40 62° WSW 21:50:05 10° SSE
NOSS 3-4 (C) 4.2 21:35:47 10° NW 21:42:46 63° WSW 21:50:12 10° SSE
Terra 3.9 21:42:03 10° E 21:44:09 13° ENE 21:46:17 10° NE
USA 245 4.2 21:46:50 14° SE 21:49:19 32° ENE 21:52:59 10° N
Resurs 01 Rocket 4.3 21:50:16 10° SW 21:52:55 16° W 21:55:34 10° NW
SL-08 RB Rocket 4.5 21:49:54 13° SE 21:53:30 37° ENE 21:57:45 10° N
Cosmos 2227 Rocket 4.2 21:51:56 10° WSW 21:56:57 32° WNW 22:01:59 10° N
H-2A R/B 4.3 21:57:48 10° E 21:59:34 12° ENE 22:01:18 10° NE
Cosmos 1674 2.6 21:56:37 10° S 22:00:23 87° E 22:04:09 10° N
Helios 1B rocket 4.0 21:58:37 10° N 22:02:29 38° WNW 22:06:19 10° SW
Cosmos 1459 Rocket 4.0 21:56:16 10° N 22:02:36 80° E 22:08:40 11° S
Atlas Centaur 2 3.1 22:01:25 10° SW 22:02:48 12° SSW 22:03:34 11° S
H-2A ROCKET BODY 3.8 22:00:25 10° S 22:03:22 16° SE 22:08:52 10° ESE
Cosmos 2084 3.5 21:59:53 10° SW 22:03:53 71° NW 22:07:44 10° NNE
Cosmos 1908 3.2 22:00:49 10° N 22:04:43 82° W 22:08:10 13° S
Cosmos 2100 Rocket 4.1 21:59:09 10° N 22:05:30 89° E 22:11:52 10° S
ARGOS 3.3 22:01:30 14° SSE 22:06:11 67° ENE 22:11:34 10° N
SL-16 R/B 2.7 22:00:49 10° NNW 22:06:23 58° WSW 22:11:44 11° S
MetOp-A 4.1 22:01:21 12° SSE 22:06:23 86° ENE 22:11:47 10° NNW
Cosmos 2061 Rocket 4.1 22:03:04 10° N 22:09:28 81° E 22:15:28 12° S
ERBS 4.2 22:08:39 10° NNW 22:11:25 23° NE 22:13:54 11° E
KORONAS-FOTON 3.7 22:10:27 10° S 22:14:14 84° E 22:18:02 10° N
Cosmos 2123 Rocket 4.2 22:11:01 13° SSE 22:16:19 53° E 22:22:18 10° NNE
Cosmos 2173 Rocket 4.1 22:10:51 10° N 22:17:01 82° W 22:23:00 11° S
Cosmos 2208 Rocket 4.4 22:12:07 10° NNW 22:17:24 65° WSW 22:21:57 14° S
SPOT 1/Viking Rocket 3.5 22:25:32 21° SSE 22:28:58 72° ENE 22:34:07 10° N
Cosmos 841 Rocket 4.4 22:24:52 10° N 22:29:41 35° ENE 22:32:30 21° ESE
Cosmos 1242 Rocket 3.8 22:28:30 10° NNW 22:31:58 38° W 22:34:53 13° SSW
Cosmos 1763 Rocket 4.0 22:27:25 10° N 22:32:20 46° ENE 22:35:00 24° SE
Cosmos 220 Rocket 4.1 22:30:12 20° S 22:33:07 55° ESE 22:37:25 10° NNE
Cosmos 1802 Rocket 4.3 22:32:34 10° NNW 22:38:38 64° W 22:43:58 14° S
Cosmos 1725 Rocket 4.0 22:33:13 10° N 22:39:30 77° E 22:43:35 23° SSE
SPOT 5 3.2 22:37:41 19° S 22:41:04 64° W 22:46:07 10° NNW
Cosmos 2227 4.4 22:35:40 10° SSW 22:41:23 75° WNW 22:47:08 10° NNE
Cosmos 2058 3.7 22:41:53 30° ESE 22:42:57 35° E 22:46:48 10° NNE
Cosmos 371 Rocket 3.3 22:38:37 10° NNW 22:43:26 71° ENE 22:45:45 30° SSE
Cosmos 1408 Rocket 4.3 22:39:30 10° SSW 22:43:41 51° W 22:47:56 10° N
Lacrosse 5 1.8 22:39:02 10° NW 22:44:08 85° NE 22:46:42 30° SE
deb Chang Zheng 4 4.4 22:45:03 10° NE 22:48:57 31° E 22:49:38 29° ESE
Tiangong 1 1.1 22:51:56 10° WNW 22:54:42 61° N 22:55:09 50° NE
CZ-4C R/B 4.1 22:56:27 12° E 22:56:27 12° E 22:57:42 10° ENE
Abrixas rocket 2.8 22:52:39 10° NW 22:55:50 51° NNE 22:56:48 35° ENE
RESURS DK-1 2.7 22:52:27 10° NNW 22:56:34 60° WSW 22:58:06 35° S
USA 234 3.4 22:52:54 10° NE 22:59:26 77° NW 23:05:57 10° WSW
Cosmos 468 Rocket 4.5 22:56:13 10° NNW 23:01:12 52° WSW 23:03:52 26° SSW
EO 1 Delta rocket 4.3 22:59:49 23° SSW 23:02:35 55° W 23:07:08 10° NNW
Cosmos 1500 Rocket 3.5 23:01:39 32° S 23:03:40 89° ESE 23:08:10 10° N
Cosmos 2151 2.9 23:02:31 40° S 23:03:59 74° E 23:08:18 10° NNE
SL-14 R/B 3.9 23:02:08 22° SSW 23:04:29 53° W 23:08:22 10° N
Cosmos 1626 2.3 23:05:11 50° ESE 23:05:30 52° E 23:09:09 10° NNE
Landsat 7 3.9 23:04:12 33° S 23:06:20 73° WSW 23:11:06 10° NNW
Cosmos 2263 Rocket 2.1 23:04:26 28° S 23:07:22 64° ESE 23:12:53 10° NNE
Cosmos 1300 3.6 23:05:11 10° NNW 23:08:50 43° W 23:10:18 29° SW
Meteor 2-10 4.5 23:03:21 10° NNW 23:08:54 64° W 23:12:05 26° S
Cosmos 1503 Rocket 4.2 23:08:10 38° SSE 23:09:37 48° ESE 23:14:36 10° NNE
Cosmos 1726 3.7 23:07:54 10° NNW 23:11:07 29° W 23:12:45 20° SW
H-2A R/B 2.8 23:10:15 23° SSW 23:13:20 47° W 23:18:33 10° NNW
CARTOSAT-1 3.5 23:12:30 45° S 23:13:47 85° WSW 23:18:08 10° NNW
Terra 1.8 23:19:38 41° S 23:21:16 74° WSW 23:26:03 10° NNW
CZ-4 R/B 3.8 23:17:04 10° NNE 23:21:55 65° ESE 23:23:08 47° SSE
Cosmos 1805 Rocket 4.0 23:22:29 41° ESE 23:22:44 41° E 23:26:49 10° NNE
Cosmos 1633 Rocket 4.3 23:28:53 26° E 23:28:53 26° E 23:32:19 10° NNE
CZ-4B R/B 3.6 23:25:41 10° NNE 23:30:56 65° ESE 23:32:19 46° SSE
SL-19 R/B 4.2 23:26:15 10° NNE 23:31:36 84° WNW 23:34:17 32° SSW
Cosmos 2233 Rocket 4.2 23:26:36 10° NNW 23:32:46 67° W 23:35:40 32° SSW
Cosmos 540 Rocket 3.6 23:29:39 10° NNW 23:34:46 62° ENE 23:36:05 46° SE
H-2A R/B 2.2 23:34:10 51° SSW 23:35:03 65° WSW 23:39:18 10° NNW
Cosmos 1151 Rocket 3.8 23:32:17 10° NNW 23:36:29 45° W 23:37:42 35° SW
CZ-2C R/B 4.4 23:37:55 25° ESE 23:39:58 32° ENE 23:44:56 10° N
Cosmos 1844 Rocket 3.8 23:41:56 25° E 23:41:56 25° E 23:46:13 10° NE
IGS 5A 4.3 23:41:12 36° SW 23:42:01 41° W 23:45:59 10° NNW
Cosmos 1455 2.1 23:38:44 10° N 23:42:37 85° W 23:42:40 85° SW
Cosmos 1869 3.8 23:40:24 10° N 23:44:06 46° ENE 23:44:06 46° ENE
Cosmos 304 Rocket 3.6 23:42:18 10° NNW 23:47:07 87° WSW 23:47:54 63° SSE
ERBS 3.8 23:45:01 10° WNW 23:47:11 29° W 23:47:11 29° W
Spot 4 3.8 23:47:15 56° S 23:48:16 79° WSW 23:53:10 10° NNW
Cosmos 1943 3.8 23:44:19 10° NW 23:49:43 47° WSW 23:51:21 37° SSW
CZ-4C R/B 3.3 23:49:57 74° SE 23:50:17 83° ENE 23:54:41 10° N
Cosmos 1354 Rocket 4.2 23:51:23 34° SW 23:53:37 67° WNW 23:58:50 10° NNE
Cosmos 1400 Rocket 4.5 23:55:02 24° ENE 23:55:02 24° ENE 23:57:44 10° NE
